Tracking 30744 objects as of 23-Jun-2025
HD Live streaming from Space Station
objects crossing your sky now

STARLINK-30852

Track STARLINK-30852 now!
10-day predictions
STARLINK-30852 is classified as:


NORAD ID: 58373
Int'l Code: 2023-177Y
Perigee: 565.4 km
Apogee: 567.0 km
Inclination: 43.0 °
Period: 95.8 minutes
Semi major axis: 6937 km
RCS: Unknown
Launch date: November 18, 2023
Source: United States (US)
Launch site: AIR FORCE EASTERN TEST RANGE (AFETR)
Your satellite tracking list
Your tracking list is empty




NASA's NSSDC Master Catalog

Two Line Element Set (TLE):
1 58373U 23177Y   25173.43739856 -.00000431  00000-0 -16839-4 0  9990
2 58373  43.0038 325.9868 0001140 269.8661  90.2051 15.02536492 89068
Source of the keplerian elements: AFSPC